Location: Be?chatów
(51.3665°N, 19.3745°E)
Time: 22:00:40
(UTC+00:00)

Cosmos 1624 Rocket - Pass Details

Date: 19 May 2025
Orbit: 753 x 779 km, 74.0° (Epoch: 16 June)

Event Time Altitude Azimuth Distance (km) Brightness Sun altitude
Rises 22:44:44 0° 335° (NNW) 3,224 8.4 -18.6°
Reaches altitude 10° 22:47:06 10° 335° (NNW) 2,297 7.4 -18.6°
Maximum altitude 22:52:19 88° 68° (ENE) 768 3.9 -18.6°
Enters shadow 22:54:54 31° 155° (SSE) 1,316 4.7 -18.6°
